Location: Peebles
(55.6412°N, 3.1714°W)
Time: 06:23:40
(UTC+01:00)

NOAA 16 DEB - Pass Details

Date: 07 July 2022
Orbit: 836 x 886 km, 98.9° (Epoch: 10 August)

Event Time Altitude Azimuth Distance (km) Brightness Sun altitude
Exits shadow 00:37:44 - 219° (SW) 3,188 ? -11.3°
Reaches altitude 10° 00:40:25 10° 237° (WSW) 2,451 ? -11.4°
Maximum altitude 00:43:44 16° 275° (W) 2,045 ? -11.4°
Drops below altitude 10° 00:47:05 10° 313° (NW) 2,467 ? -11.5°
Sets 00:50:26 0° 335° (NNW) 3,413 ? -11.5°
